Odessa, TX

10:46 PM CDT on March 23, 2017 (GMT -0500)
Odessa-Schlemeyer

Weather History for KODO - November, 2012

Change the Weather History Date:

Thursday, November 8, 2012

  Actual Average (KMAF) Record (KMAF)
Temperature  
Mean Temperature 72 °F -  
Max Temperature 84 °F 63 °F 89 °F (1988)
Min Temperature 60 °F 42 °F 22 °F (1938)
Cooling Degree Days 7    
Growing Degree Days 22 (Base 50)    
Moisture  
Dew Point 47 °F    
Average Humidity 48    
Maximum Humidity 72    
Minimum Humidity 18    
Precipitation  
Precipitation 0.00 in - - ()
Sea Level Pressure  
Sea Level Pressure 29.89 in    
Wind  
Wind Speed 12 mph (South)    
Max Wind Speed 18 mph    
Max Gust Speed 24 mph    
Visibility 10 miles    
Events      
Averages and records for this station are not official NWS values.
T = Trace of Precipitation, MM = Missing Value Source: NWS Daily Summary

Daily Weather History Graph

Daily Weather History Graph

Search for Another Location

Airport or City:

Trip Planner

Search our weather history database for the weather conditions in past years. The results will help you decide how hot, cold, wet, or windy it might be!

Date:

Astronomy

Nov. 08, 2012 Rise Set
Actual Time 7:12 AM CST 5:53 PM CST
Civil Twilight 6:46 AM CST 6:19 PM CST
Nautical Twilight 6:17 AM CST 6:48 PM CST
Astronomical Twilight 5:48 AM CST 7:17 PM CST
Moon 1:30 AM CST (11/8) 2:17 PM CST (11/8)
Length of Visible Light 11h 32m
Length of Day
10h 41m
Waning Crescent, 32% of the Moon is Illuminated
Nov 8
Waning Crescent
Nov 13
New
Nov 20
First Quarter
Nov 28
Full
Dec 6
Last Quarter

Hourly Weather History & Observations

Time (CST) Temp. Dew Point Humidity Pressure Visibility Wind Dir Wind Speed Gust Speed Precip Events Conditions
12:53 AM 62.1 °F 51.1 °F 67% 29.94 in 10.0 mi South 9.2 mph - N/A   Clear
1:53 AM 61.0 °F 51.1 °F 70% 29.93 in 10.0 mi South 9.2 mph - N/A   Clear
2:53 AM 62.1 °F 50.0 °F 65% 29.91 in 10.0 mi South 10.4 mph - N/A   Clear
3:53 AM 61.0 °F 48.9 °F 64% 29.90 in 10.0 mi South 10.4 mph - N/A   Clear
5:53 AM 61.0 °F 51.1 °F 70% 29.91 in 10.0 mi South 12.7 mph - N/A   Clear
6:53 AM 60.1 °F 51.1 °F 72% 29.92 in 10.0 mi South 10.4 mph - N/A   Clear
7:53 AM 60.1 °F 51.1 °F 72% 29.95 in 10.0 mi South 11.5 mph - N/A   Clear
8:53 AM 64.0 °F 51.1 °F 63% 29.96 in 10.0 mi SSW 11.5 mph - N/A   Clear
9:53 AM 69.1 °F - N/A% 29.96 in 10.0 mi South 15.0 mph - N/A   Clear
10:53 AM 72.0 °F 46.0 °F 40% 29.95 in 10.0 mi South 11.5 mph - N/A   Clear
11:53 AM 75.9 °F 44.1 °F 32% 29.92 in 10.0 mi South 15.0 mph - N/A   Clear
12:53 PM 80.1 °F 39.9 °F 24% 29.88 in 10.0 mi SSW 13.8 mph - N/A   Clear
1:53 PM 82.0 °F 39.9 °F 22% 29.84 in 10.0 mi South 9.2 mph 18.4 mph N/A   Clear
2:53 PM 84.0 °F 37.0 °F 19% 29.82 in 10.0 mi South 15.0 mph 18.4 mph N/A   Clear
3:53 PM 82.9 °F 35.1 °F 18% 29.81 in 10.0 mi SSW 9.2 mph - N/A   Clear
4:53 PM 80.1 °F 42.1 °F 26% 29.81 in 10.0 mi SSE 17.3 mph - N/A   Clear
5:53 PM 75.9 °F 44.1 °F 32% 29.82 in 10.0 mi SSE 17.3 mph 23.0 mph N/A   Clear
6:53 PM 73.9 °F 45.0 °F 35% 29.84 in 10.0 mi SSE 13.8 mph - N/A   Clear
7:53 PM 72.0 °F 48.0 °F 43% 29.85 in 10.0 mi South 15.0 mph 23.0 mph N/A   Clear
8:53 PM 71.1 °F 52.0 °F 51% 29.86 in 10.0 mi South 18.4 mph 24.2 mph N/A   Clear
9:53 PM 70.0 °F 52.0 °F 53% 29.86 in 10.0 mi South 15.0 mph 24.2 mph N/A   Clear
10:53 PM 68.0 °F 52.0 °F 56% 29.86 in 10.0 mi South 13.8 mph - N/A   Clear
11:53 PM 66.9 °F 53.1 °F 61% 29.86 in 10.0 mi South 11.5 mph - N/A   Clear